{"data":{"norad_id":62388,"intl_designator":"2024-247M","name":"GITAI-SC1","alt_names":[],"object_type":"PAYLOAD","status":"ACTIVE","operator":null,"country":"US","launch_date":"2024-12-21","launch_site_code":"AFWTR","launch_vehicle":null,"mission":null,"orbit_class":"UNKNOWN","rcs_meters":null,"size_class":null,"mass_kg":null,"dimensions":null,"purposes":[],"wikipedia_slug":null,"has_3d_model":false,"image_url":null,"decayed_at":null,"tle_current":{"epoch":"2026-05-25T04:45:21.640032Z","epoch_age_seconds":68099,"freshness":"FRESH","line1":"1 62388U 24247M   26145.19816713  .00005077  00000+0  23637-3 0  9992","line2":"2 62388  45.0015  75.9221 0000597 283.5182  76.5632 15.21095480 79235","mean_motion":15.2109548,"eccentricity":5.97e-5,"inclination_deg":45.0015,"raan_deg":75.9221,"arg_perigee_deg":283.5182,"mean_anomaly_deg":76.5632,"bstar":0.00023637,"rev_number":7923,"period_min":94.668613439046,"perigee_km":502.12425276449,"apogee_km":502.94580500474,"semimajor_km":6880.6720288846,"source":"CELESTRAK","updated_at":"2026-05-25T13:38:02.946707Z"}}}